Location: Livorno
(43.5500°N, 10.3170°E)
Time: 20:05:39
(UTC+01:00)

Envisat - Pass Details

Date: 05 November 2020
Orbit: 764 x 766 km, 98.1° (Epoch: 05 December)

Event Time Altitude Azimuth Distance (km) Brightness Sun altitude
Rises 18:40:56 0° 209° (SSW) 3,220 6.7 -17.8°
Reaches altitude 10° 18:44:02 10° 229° (SW) 2,300 6.3 -18.4°
Maximum altitude 18:47:18 17° 270° (W) 1,863 6.0 -19.0°
Drops below altitude 10° 18:50:34 10° 310° (NW) 2,310 6.1 -19.6°
Sets 18:53:43 0° 330° (NNW) 3,242 6.6 -20.1°
